#timestamp,LO_Frequency,Hit,StdDev 
1584751535.2,286047028.9,P
1584751555.1,286047031.6,P
1584751556.0,286047031.6,P
1584751575.8,286047031.6,Y
1584751595.6,286047000.9,P
1584751615.5,286046999.8,N
1584751635.3,286047001.9,N
1584751655.2,286047002.1,N
1584751675.9,286047001.7,N
1584751695.7,286047003.8,N
1584751715.6,286047004.0,N
1584751735.4,286047005.9,N
1584751755.2,286047005.5,N
1584751775.1,286047004.7,N
1584751776.0,286047004.7,N
1584751795.8,286047007.1,N
1584751815.7,286047007.1,N
1584751835.5,286047006.7,N
1584751855.3,286047008.8,N
1584751875.2,286047009.1,N
1584751895.0,286047008.9,N
1584751895.9,286047008.9,N
1584751915.7,286047010.8,N
1584751935.6,286047007.7,N
1584751955.4,286047010.0,N
1584751975.3,286047007.8,N
1584751995.1,286047009.3,N
1584751996.0,286047009.3,N
1584752015.8,286047012.3,N
1584752035.7,286047011.4,N
1584752055.5,286047011.2,N
1584752075.3,286047013.6,N
1584752095.2,286047013.0,N
1584752115.0,286047013.0,N
1584752115.9,286047013.0,Y
1584752135.8,286047006.4,P
1584752155.6,286047006.8,P
1584752175.4,286047006.7,P
1584752195.3,286047006.4,Y
1584752215.1,286047000.0,P
1584752235.9,286047000.3,N
1584752255.7,286047000.5,N
1584752275.5,286047000.9,N
1584752295.4,286047000.4,N
1584752315.2,286047000.1,N
1584752335.0,286047002.2,N
1584752336.0,286047002.2,N
1584752355.8,286047001.8,N
1584752375.6,286047001.9,N
1584752395.5,286047004.0,N
